Regional Weather Roundup
Issued by NWS

Home | Current Version | Previous Version | Graphics & Text | Print | Product List | Glossary Off
Versions: 1 2 3 4 5 6 7 8 9 10 11 12 13 14 15 16 17 18 19 20 21 22 23 24 25 26 27 28 29 30 31 32 33 34 35 36 37 38 39 40 41 42 43 44 45 46 47 48 49

000
ASUS43 KDMX 190707
RWRIA

WEATHER ROUNDUP FOR IOWA
NATIONAL WEATHER SERVICE DES MOINES IA
200 AM CDT FRI SEP 19 2014

NOTE: "FAIR" INDICATES FEW OR NO CLOUDS BELOW 12,000 FEET WITH NO
SIGNIFICANT WEATHER AND/OR OBSTRUCTIONS TO VISIBILITY.

* - THESE STATIONS ARE NOT NWS STATIONS...THUS NOT UNDER NWS
QUALITY CONTROL.  THEY ALSO DO NOT REPORT WEATHER SUCH
AS PRECIPITATION OR FOG.

IAZ001>003-012>014-020>022-031>034-043>046-190800-
   NORTHWEST IOWA

CITY           SKY/WX    TMP DP  RH WIND       PRES   REMARKS
CARROLL *      MOCLDY    57  55  94 S7        30.00S
CHEROKEE *     CLEAR     57  57 100 S9        29.98S
DENISON *      PTCLDY    59  57  94 S10G18    29.98R
LE MARS *        N/A     61  57  88 S13       29.94F
ORANGE CITY *  CLEAR     61  55  82 S10       29.94F
SHELDON *      MOCLDY    57  57 100 S13G21    29.93F
SIOUX CITY     PTCLDY    61  58  90 S12       29.95S
SPENCER        PTCLDY    59  55  87 S12       29.97S
STORM LAKE *   CLEAR     57  57 100 S9        29.99S
$$

IAZ055>058-069>071-079>083-090>094-190800-
   SOUTHWEST IOWA

CITY           SKY/WX    TMP DP  RH WIND       PRES   REMARKS
ATLANTIC *     MOCLDY    61  57  88 S10       30.01R
AUDUBON *      CLEAR     57  52  82 S6        30.02R
CLARINDA *     CLOUDY    59  59 100 CALM      30.04R
COUNCIL BLFS *   N/A     59  59 100 S10       29.98F FOG
CRESTON *      CLEAR     57  55  94 S9        30.04S
HARLAN  *      PTCLDY    59  59 100 S9        30.03S
LAMONI         CLEAR     58  55  90 SE8       30.04S
SHENANDOAH *     N/A     59  57  94 SE6       30.02R FOG
$$

IAZ047>049-059>061-072>074-084-190800-
   CENTRAL IOWA

CITY           SKY/WX    TMP DP  RH WIND       PRES   REMARKS
AMES           CLEAR     52  52 100 SE6       30.03F
ANKENY *       PTCLDY    55  54  94 SE3       30.04S
CHARITON *     CLEAR     55  54  94 SE6       30.05S
DES MOINES     PTCLDY    60  55  83 SE9       30.04S
GRINNELL*      CLEAR     55  52  88 SE7       30.08R
KNOXVILLE *    CLEAR     55  54  94 SE6       30.04F
MARSHALLTOWN   CLEAR     56  52  86 SE9       30.05S
PELLA *        CLEAR     55  54  94 SE5       30.07S
PERRY *          N/A     55  55 100 S7        30.02S FOG
$$

IAZ004>006-015-016-023>025-035-036-190800-
   NORTH CENTRAL IOWA

CITY           SKY/WX    TMP DP  RH WIND       PRES   REMARKS
ALGONA *       PTCLDY    57  54  88 S12G18    30.00S
CLARION *        N/A     55  54  94 SE8       30.02S
ESTHERVILLE    MOCLDY    57  53  86 S13       29.98R
FORT DODGE *   CLEAR     61  54  77 S8        30.02S
MASON CITY     PTCLDY    55  52  89 SE9       30.05R
FOREST CITY *  PTCLDY    54  54 100 S7        30.02S
IOWA FALLS *     N/A     55  52  88 SE7       30.06R
$$

IAZ007>011-017>019-026>030-037>042-050>054-066-190800-
   NORTHEAST IOWA

CITY           SKY/WX    TMP DP  RH WIND       PRES   REMARKS
CEDAR RAPIDS   CLEAR     52  50  93 SE6       30.08S
CHARLES CITY * CLEAR     55  52  88 SE9       30.07S
CLINTON *      CLEAR     54  50  87 SE9       30.14F
DECORAH *      CLEAR     54  52  94 SE8G14    30.08S
DUBUQUE        CLEAR     54  53  97 SE12      30.11F
MONTICELLO *   CLEAR     55  54  94 SE9       30.10S
OELWEIN *      CLEAR     54  52  94 SE8       30.09R
WATERLOO       CLEAR     56  51  84 SE8       30.06S
$$

IAZ064-065-067-068-078-190800-
   EAST CENTRAL IOWA

CITY           SKY/WX    TMP DP  RH WIND       PRES   REMARKS
DAVENPORT      CLEAR     54  50  86 SE9       30.12F
IOWA CITY      CLEAR     53  50  89 SE5       30.10S
MT. PLEASANT * CLEAR     52  48  87 E5        30.09S
MUSCATINE *    CLEAR     50  48  93 CALM      30.11S
QUAD CITIES    CLEAR     53  49  86 E7        30.11F
$$

IAZ062-063-075>077-085>089-095>099-190800-
   SOUTHEAST IOWA

CITY           SKY/WX    TMP DP  RH WIND       PRES   REMARKS
BURLINGTON     CLEAR     56  49  77 E5        30.09S
FAIRFIELD *    CLEAR     54  48  82 E5        30.08S
FORT MADISON * CLEAR     57  52  82 SE6       30.10S
KEOKUK *       CLEAR     55  50  82 SE7       30.08S
OSKALOOSA *      N/A     54  52  94 SE5       30.07S
CENTERVILLE *  CLEAR     54  54 100 SE3       30.07S
OTTUMWA        CLEAR     54  51  90 SE7       30.06S
WASHINGTON *   CLEAR     50  50 100 SE6       30.09R
$$

ABBREVIATIONS USED IN REMARKS
   TC - TEMPERATURES IN CELSIUS
  WCI - WIND CHILL INDEX
   HX - HEAT INDEX
  VSB - VISIBILITY
$$



USA.gov is the U.S. government's official web portal to all federal, state and local government web resources and services.